Salisbury, MD

12:29 PM EST on February 26, 2017 (GMT -0500)
Salisbury-Ocean City Wicomico Regional

Weather History for KSBY - March, 2013

Change the Weather History Date:

Friday, March 29, 2013

  Actual Average Record
Temperature  
Mean Temperature 45 °F 49 °F  
Max Temperature 56 °F 59 °F 93 °F (1907)
Min Temperature 33 °F 38 °F 18 °F (1923)
Degree Days  
Heating Degree Days 20 16  
Month to date heating degree days 661 598  
Since 1 July heating degree days 3439 3903  
Cooling Degree Days 0 0  
Month to date cooling degree days 0 0  
Year to date cooling degree days 0 0  
Moisture  
Dew Point 28 °F    
Average Humidity 57    
Maximum Humidity 82    
Minimum Humidity 32    
Precipitation  
Precipitation 0.00 in 0.15 in 1.92 in (2010)
Month to date precipitation 4.60 4.13  
Year to date precipitation 11.30 11.09  
Snow  
Snow 0.00 in 0.00 in T in (1930)
Month to date snowfall T 0.8  
Since 1 July snowfall 2.8 9.1  
Snow Depth 0.00 in    
Sea Level Pressure  
Sea Level Pressure 30.20 in    
Wind  
Wind Speed 6 mph (WNW)    
Max Wind Speed 18 mph    
Max Gust Speed 30 mph    
Visibility 10 miles    
Events      
T = Trace of Precipitation, MM = Missing Value Source: NWS Daily Summary

Daily Weather History Graph

Daily Weather History Graph

Search for Another Location

Airport or City:

Trip Planner

Search our weather history database for the weather conditions in past years. The results will help you decide how hot, cold, wet, or windy it might be!

Date:

Astronomy

Mar. 29, 2013 Rise Set
Actual Time 6:51 AM EDT 7:22 PM EDT
Civil Twilight 6:24 AM EDT 7:49 PM EDT
Nautical Twilight 5:53 AM EDT 8:20 PM EDT
Astronomical Twilight 5:21 AM EDT 8:52 PM EDT
Moon 10:17 PM EDT (3/29) 8:00 AM EDT (3/29)
Length of Visible Light 13h 24m
Length of Day
12h 31m
Waning Gibbous, 93% of the Moon is Illuminated
Mar 29
Waning Gibbous
Apr 3
Last Quarter
Apr 10
New
Apr 18
First Quarter
Apr 25
Full

Hourly Weather History & Observations

Time (EDT) Temp. Windchill Dew Point Humidity Pressure Visibility Wind Dir Wind Speed Gust Speed Precip Events Conditions
12:54 AM 44.1 °F 40.1 °F 28.9 °F 55% 30.20 in 10.0 mi WNW 6.9 mph - N/A   Overcast
1:54 AM 43.0 °F 40.3 °F 28.9 °F 58% 30.21 in 10.0 mi West 4.6 mph - N/A   Partly Cloudy
2:54 AM 39.0 °F 36.8 °F 28.9 °F 67% 30.21 in 10.0 mi West 3.5 mph - N/A   Clear
3:54 AM 39.0 °F 36.8 °F 30.0 °F 70% 30.20 in 10.0 mi West 3.5 mph - N/A   Clear
4:54 AM 37.0 °F 33.3 °F 30.0 °F 76% 30.21 in 10.0 mi West 4.6 mph - N/A   Clear
5:54 AM 36.0 °F 33.3 °F 30.0 °F 79% 30.22 in 10.0 mi West 3.5 mph - N/A   Clear
6:54 AM 33.1 °F - 28.0 °F 82% 30.22 in 10.0 mi Calm Calm - N/A   Clear
7:54 AM 37.9 °F - 32.0 °F 79% 30.24 in 10.0 mi Calm Calm - N/A   Clear
8:54 AM 46.0 °F 42.5 °F 30.0 °F 54% 30.24 in 10.0 mi WNW 6.9 mph - N/A   Clear
9:54 AM 50.0 °F - 27.0 °F 41% 30.23 in 10.0 mi NNW 12.7 mph - N/A   Clear
10:54 AM 50.0 °F - 24.1 °F 36% 30.23 in 10.0 mi NW 6.9 mph - N/A   Partly Cloudy
11:54 AM 55.0 °F - 27.0 °F 34% 30.22 in 10.0 mi NW 15.0 mph 23.0 mph N/A   Overcast
12:54 PM 53.1 °F - 26.1 °F 35% 30.20 in 10.0 mi West 9.2 mph - N/A   Mostly Cloudy
1:54 PM 53.1 °F - 25.0 °F 34% 30.18 in 10.0 mi NNW 11.5 mph 19.6 mph N/A   Mostly Cloudy
2:54 PM 55.9 °F - 26.1 °F 32% 30.16 in 10.0 mi NW 12.7 mph 18.4 mph N/A   Mostly Cloudy
3:54 PM 54.0 °F - 25.0 °F 33% 30.15 in 10.0 mi NW 11.5 mph - N/A   Overcast
4:54 PM 55.0 °F - 26.1 °F 33% 30.14 in 10.0 mi WNW 8.1 mph - N/A   Overcast
5:54 PM 55.0 °F - 26.1 °F 33% 30.14 in 10.0 mi WNW 11.5 mph - N/A   Overcast
6:54 PM 54.0 °F - 25.0 °F 33% 30.15 in 10.0 mi NW 9.2 mph - N/A   Scattered Clouds
7:54 PM 51.1 °F - 26.1 °F 38% 30.17 in 10.0 mi West 3.5 mph - N/A   Scattered Clouds
8:54 PM 42.1 °F 39.2 °F 30.0 °F 62% 30.18 in 10.0 mi SSW 4.6 mph - N/A   Partly Cloudy
9:54 PM 43.0 °F - 30.0 °F 60% 30.20 in 10.0 mi Calm Calm - N/A   Mostly Cloudy
10:54 PM 41.0 °F - 30.9 °F 67% 30.20 in 10.0 mi Calm Calm - N/A   Clear
11:54 PM 42.1 °F - 33.1 °F 70% 30.20 in 10.0 mi Calm Calm - N/A   Clear